Home   Weather   Birmingham   Past weeks
Flag for United Kingdom

Past Weather in Birmingham, England, United Kingdom — Yesterday and Last 2 Weeks

Now
45 °F

Partly sunny.


Feels Like: 43 °F
Forecast: 55 / 33 °F
Wind: 3 mph from Northwest

Location: Birmingham / Airport

Current Time: Apr 3, 2020 at 8:31:32 am

Latest Report: Apr 3, 2020 at 7:50 am


Visibility: N/A

Pressure: 30.01 "Hg

Humidity: 76%

Dew Point: 37 °F

Location of BirminghamLocation

Past Weather in Birmingham — Graph

°F

Birmingham Temperature Yesterday

Maximum temperature yesterday: 55 °F (at 5:20 pm)
Minimum temperature yesterday: 45 °F (at 12:20 am)
Average temperature yesterday: 48 °F

High & Low Weather Summary for the Past Weeks

 TemperatureHumidityPressure
High61 °F (Mar 24, 3:20 pm)100% (Mar 27, 5:50 am)30.77 "Hg (Mar 27, 5:50 am)
Low28 °F (Mar 23, 4:20 am)25% (Mar 26, 4:20 pm)29.92 "Hg (Apr 2, 2:20 pm)
Average43 °F68%30.34 "Hg
* Reported Mar 19 5:20 am — Apr 3 6:50 am, Birmingham. Weather by CustomWeather, © 2020

Note: Actual official high and low records may vary slightly from our data, if they occured in-between our weather recording intervals... More about our weather records

Birmingham Weather History for the Previous 24 Hours

Scroll right to see more
 ConditionsComfort  
Time TempWeatherWind HumidityBarometerVisibility
6:50 am
Fri, Apr 3
45 °FBroken clouds.5 mph76%30.01 "HgN/A
6:20 am45 °FPassing clouds.5 mph76%30.01 "HgN/A
5:50 am43 °FPassing clouds.3 mph87%29.98 "HgN/A
5:20 am43 °FOvercast.2 mph87%29.98 "HgN/A
4:50 am43 °FOvercast.3 mph87%29.98 "HgN/A
4:20 am43 °FOvercast.2 mph81%29.98 "HgN/A
3:50 am45 °FOvercast.2 mph76%29.98 "HgN/A
3:20 am45 °FPassing clouds.3 mph71%29.98 "HgN/A
2:50 am45 °FMostly cloudy.5 mph71%29.98 "HgN/A
2:20 am45 °FMostly cloudy.5 mph71%29.98 "HgN/A
1:50 am45 °FPassing clouds.6 mph71%29.98 "HgN/A
12:20 am45 °FOvercast.7 mph71%29.98 "HgN/A
11:50 pm
Thu, Apr 2
46 °FPassing clouds.5 mph66%29.98 "HgN/A
11:20 pm46 °FPassing clouds.8 mph71%29.98 "HgN/A
10:50 pm46 °FPassing clouds.7 mph76%29.98 "HgN/A
10:20 pm46 °FClear.8 mph76%29.98 "Hg10 mi
9:50 pm46 °FPassing clouds.12 mph76%29.98 "HgN/A
9:20 pm46 °FPassing clouds.7 mph71%29.95 "HgN/A
8:50 pm48 °FPassing clouds.9 mph66%29.95 "HgN/A
8:20 pm48 °FPartly cloudy.10 mph66%29.95 "HgN/A
7:50 pm50 °FPassing clouds.8 mph62%29.92 "HgN/A
7:20 pm52 °FPartly sunny.14 mph58%29.92 "HgN/A
6:50 pm54 °FPassing clouds.15 mph54%29.92 "HgN/A
6:20 pm54 °FScattered clouds.14 mph54%29.92 "HgN/A
5:50 pm52 °FScattered clouds.21 mph58%29.92 "HgN/A
5:20 pm55 °FScattered clouds.21 mph51%29.92 "HgN/A
4:50 pm54 °FPassing clouds.17 mph54%29.92 "HgN/A
4:20 pm54 °FScattered clouds.16 mph58%29.92 "HgN/A
3:50 pm54 °FScattered clouds.10 mph63%29.92 "HgN/A
3:20 pm52 °FScattered showers. Partly sunny.16 mph72%29.95 "HgN/A
2:50 pm54 °FBroken clouds.13 mph63%29.92 "HgN/A
2:20 pm52 °FLight rain. Mostly cloudy.14 mph67%29.92 "HgN/A
1:50 pm52 °FPartly sunny.12 mph67%29.95 "HgN/A
1:20 pm52 °FPartly sunny.10 mph67%29.95 "HgN/A
12:50 pm50 °FPartly sunny.14 mph71%29.95 "HgN/A
12:20 pm52 °FScattered showers. Partly sunny.12 mph67%29.95 "HgN/A
11:50 am52 °FPartly sunny.12 mph62%29.95 "HgN/A
11:20 am52 °FPartly sunny.12 mph62%29.95 "HgN/A
10:50 am50 °FPartly sunny.12 mph62%29.98 "HgN/A
10:20 am52 °FScattered clouds.12 mph62%29.98 "HgN/A
9:50 am50 °FScattered clouds.10 mph62%29.98 "HgN/A
9:20 am48 °FPassing clouds.10 mph71%29.98 "HgN/A
8:50 am46 °FPassing clouds.8 mph76%29.98 "HgN/A
8:20 am45 °FScattered clouds.6 mph81%30.01 "HgN/A
Weather by CustomWeather, © 2020

See weather overview

Advertising